Weather History for KAPC - August, 2014

Change the Weather History Date:

Thursday, August 14, 2014

  Actual Average Record
Temperature  
Mean Temperature 65 °F 66 °F  
Max Temperature 77 °F 79 °F 85 °F (2000)
Min Temperature 53 °F 52 °F 47 °F (2007)
Degree Days  
Heating Degree Days 0    
Month to date heating degree days 8  
Since 1 June heating degree days 61  
Since 1 July heating degree days 18  
Cooling Degree Days 0    
Month to date cooling degree days 9  
Year to date cooling degree days 137  
Since 1 June cooling degree days 126  
Growing Degree Days 14 (Base 50)    
Moisture  
Dew Point 57 °F    
Average Humidity 77    
Maximum Humidity 100    
Minimum Humidity 54    
Precipitation  
Precipitation 0.00 in - - ()
Month to date precipitation 0.07  
Year to date precipitation 8.34  
Since 1 July precipitation 0.07  
Sea Level Pressure  
Sea Level Pressure 29.92 in    
Wind  
Wind Speed 8 mph (SW)    
Max Wind Speed 16 mph    
Max Gust Speed 19 mph    
Visibility 10 miles    
Events      
T = Trace of Precipitation, MM = Missing Value Source: NWS Daily Summary

Daily Weather History Graph

Daily Weather History Graph

Search for Another Location

Airport or City:

Trip Planner

Search our weather history database for the weather conditions in past years. The results will help you decide how hot, cold, wet, or windy it might be!

Date:

Astronomy

Aug. 14, 2014 Rise Set
Actual Time 6:23 AM PDT 8:03 PM PDT
Civil Twilight 5:54 AM PDT 8:31 PM PDT
Nautical Twilight 5:20 AM PDT 9:05 PM PDT
Astronomical Twilight 4:44 AM PDT 9:41 PM PDT
Moon 10:35 PM PDT (8/14) 11:01 AM PDT (8/14)
Length of Visible Light 14h 37m
Length of Day
13h 40m
Waning Gibbous, 78% of the Moon is Illuminated
Aug 14
Waning Gibbous
Aug 17
Last Quarter
Aug 25
New
Sep 2
First Quarter
Sep 8
Full

Hourly Weather History & Observations

Time (PDT) Temp. Dew Point Humidity Pressure Visibility Wind Dir Wind Speed Gust Speed Precip Events Conditions
12:54 AM 53.1 °F 53.1 °F 100% 29.91 in 10.0 mi Calm Calm - N/A   Scattered Clouds
1:02 AM 54.0 °F 53.1 °F 97% 29.93 in 10.0 mi Calm Calm - N/A   Mostly Cloudy
1:54 AM 59.0 °F 57.0 °F 93% 29.91 in 10.0 mi Calm Calm - N/A   Overcast
2:54 AM 59.0 °F 57.9 °F 96% 29.91 in 10.0 mi SSW 5.8 mph - N/A   Overcast
3:54 AM 59.0 °F 57.0 °F 93% 29.90 in 10.0 mi SW 6.9 mph - N/A   Overcast
4:54 AM 57.9 °F 57.0 °F 97% 29.90 in 10.0 mi WSW 3.5 mph - N/A   Overcast
5:30 AM 57.9 °F 57.0 °F 97% 29.93 in 10.0 mi West 4.6 mph - N/A   Overcast
5:54 AM 57.9 °F 57.0 °F 97% 29.90 in 10.0 mi NW 4.6 mph - N/A   Overcast
6:11 AM 57.9 °F 57.0 °F 97% 29.93 in 10.0 mi West 5.8 mph - N/A   Overcast
6:54 AM 57.0 °F 57.0 °F 100% 29.92 in 3.0 mi West 3.5 mph - N/A   Overcast
7:54 AM 57.0 °F 55.9 °F 96% 29.93 in 7.0 mi WNW 3.5 mph - N/A   Overcast
8:54 AM 57.0 °F 57.0 °F 100% 29.94 in 10.0 mi SSW 5.8 mph - N/A   Overcast
9:14 AM 57.9 °F 55.9 °F 93% 29.97 in 10.0 mi WSW 5.8 mph - N/A   Overcast
10:21 AM 61.0 °F 55.9 °F 83% 29.98 in 10.0 mi WSW 8.1 mph - N/A   Overcast
10:54 AM 61.0 °F 55.9 °F 83% 29.96 in 10.0 mi WSW 5.8 mph - N/A   Overcast
11:24 AM 64.0 °F 57.0 °F 78% 29.98 in 10.0 mi WSW 5.8 mph - N/A   Overcast
11:54 AM 66.9 °F 57.0 °F 70% 29.94 in 10.0 mi Variable 6.9 mph - N/A   Scattered Clouds
11:56 AM 66.0 °F 57.0 °F 73% 29.97 in 10.0 mi SSW 8.1 mph - N/A   Scattered Clouds
12:54 PM 71.1 °F 57.0 °F 61% 29.93 in 10.0 mi South 10.4 mph - N/A   Clear
1:54 PM 75.9 °F 57.0 °F 52% 29.91 in 10.0 mi SSW 8.1 mph - N/A   Clear
2:54 PM 75.0 °F 57.0 °F 53% 29.89 in 10.0 mi SSW 11.5 mph - N/A   Clear
3:54 PM 75.9 °F 57.0 °F 52% 29.87 in 10.0 mi SSW 13.8 mph - N/A   Clear
4:54 PM 75.0 °F 57.0 °F 53% 29.86 in 10.0 mi SSW 12.7 mph - N/A   Clear
5:54 PM 73.9 °F 59.0 °F 59% 29.86 in 10.0 mi SSW 12.7 mph - N/A   Clear
6:54 PM 72.0 °F 60.1 °F 66% 29.85 in 10.0 mi SSW 11.5 mph - N/A   Clear
7:54 PM 66.9 °F 60.1 °F 79% 29.86 in 10.0 mi SSW 8.1 mph - N/A   Clear
8:54 PM 64.9 °F 57.0 °F 75% 29.88 in 10.0 mi SSW 11.5 mph - N/A   Clear
9:54 PM 61.0 °F 57.9 °F 90% 29.90 in 10.0 mi South 11.5 mph - N/A   Clear
10:54 PM 60.1 °F 57.9 °F 93% 29.90 in 10.0 mi South 9.2 mph - N/A   Clear
11:05 PM 59.0 °F 57.9 °F 96% 29.93 in 10.0 mi South 6.9 mph - N/A   Scattered Clouds
11:19 PM 59.0 °F 57.9 °F 96% 29.93 in 10.0 mi South 9.2 mph - N/A   Mostly Cloudy
11:54 PM 59.0 °F 57.9 °F 96% 29.91 in 10.0 mi South 12.7 mph - N/A   Overcast